User: anonymous
Location: Caltech
(34.1382°N, 118.1253°W)
Time: 02:04:02
(UTC-07:00)
Language:

Cosmos 1484 Rocket - Orbit

View from above orbital plane
View from above orbital plane
View from above satellite
View from above satellite

Ground track
Ground track

The orbit data is extracted from the following two-line orbital elements,

1 14208U 83075B   14210.08226638  .00001494  00000-0  10169-3 0   776
2 14208 097.4218 245.4467 0043587 157.6929 202.6208 15.07021981688518
Epoch (UTC): 29 July 2014 01:58:27
Eccentricity: 0.0043587
inclination: 97.4218°
perigee height: 515 km
apogee height: 575 km
right ascension of ascending node: 245.4467°
argument of perigee: 157.6929°
revolutions per day: 15.07021981
mean anomaly at epoch: 202.6208°
orbit number at epoch: 68851

The dashed part of the orbit path shows where the satellite is in the earth's shadow,  

DLR